Time,TemperatureF,DewpointF,PressureIn,WindDirection,WindDirectionDegrees,WindSpeedMPH,WindSpeedGustMPH,Humidity,HourlyPrecipIn,Conditions,Clouds,dailyrainin,SoftwareType,DateUTC
2013-09-07 00:01:00,64.2,57.6,30.08,SSE,168,0.0,1.0,79,0.00,,,0.00,WUHU216DAVISVP2,2013-09-07 04:01:00,
2013-09-07 00:06:00,64.1,57.5,30.08,South,184,0.0,1.0,79,0.00,,,0.00,WUHU216DAVISVP2,2013-09-07 04:06:00,
2013-09-07 00:11:00,64.0,57.4,30.08,SSE,165,0.0,1.0,79,0.00,,,0.00,WUHU216DAVISVP2,2013-09-07 04:11:00,
2013-09-07 00:16:00,64.1,57.2,30.08,SSE,148,0.0,1.0,78,0.00,,,0.00,WUHU216DAVISVP2,2013-09-07 04:16:00,
2013-09-07 00:21:00,64.2,57.3,30.08,SSE,151,0.0,1.0,78,0.00,,,0.00,WUHU216DAVISVP2,2013-09-07 04:21:00,
2013-09-07 00:26:00,64.1,57.2,30.08,SSE,160,0.0,1.0,78,0.00,,,0.00,WUHU216DAVISVP2,2013-09-07 04:26:00,
2013-09-07 00:31:00,64.0,57.1,30.07,SE,141,0.0,1.0,78,0.00,,,0.00,WUHU216DAVISVP2,2013-09-07 04:31:00,
2013-09-07 00:36:00,63.9,57.3,30.07,SSE,167,0.0,1.0,79,0.00,,,0.00,WUHU216DAVISVP2,2013-09-07 04:36:00,
2013-09-07 00:41:00,63.7,57.1,30.07,SSE,153,0.0,1.0,79,0.00,,,0.00,WUHU216DAVISVP2,2013-09-07 04:41:00,
2013-09-07 00:46:00,63.6,57.0,30.07,SSE,163,0.0,1.0,79,0.00,,,0.00,WUHU216DAVISVP2,2013-09-07 04:46:00,
2013-09-07 00:51:00,63.6,57.0,30.07,SSE,157,0.0,1.0,79,0.00,,,0.00,WUHU216DAVISVP2,2013-09-07 04:51:00,
2013-09-07 00:56:00,63.5,56.9,30.07,SSE,159,0.0,1.0,79,0.00,,,0.00,WUHU216DAVISVP2,2013-09-07 04:56:00,
2013-09-07 01:01:00,63.5,56.9,30.07,SSE,151,0.0,1.0,79,0.00,,,0.00,WUHU216DAVISVP2,2013-09-07 05:01:00,
2013-09-07 01:06:00,63.4,56.8,30.07,SSE,164,0.0,1.0,79,0.00,,,0.00,WUHU216DAVISVP2,2013-09-07 05:06:00,
2013-09-07 01:11:00,63.5,56.9,30.08,SSE,148,0.0,1.0,79,0.00,,,0.00,WUHU216DAVISVP2,2013-09-07 05:11:00,
2013-09-07 01:16:00,63.5,56.9,30.08,SSE,159,0.0,1.0,79,0.00,,,0.00,WUHU216DAVISVP2,2013-09-07 05:16:00,
2013-09-07 01:21:00,63.5,56.9,30.07,SE,131,0.0,1.0,79,0.00,,,0.00,WUHU216DAVISVP2,2013-09-07 05:21:00,
2013-09-07 01:26:00,63.4,56.8,30.08,SE,145,0.0,1.0,79,0.00,,,0.00,WUHU216DAVISVP2,2013-09-07 05:26:00,
2013-09-07 01:31:00,63.4,56.8,30.08,SE,145,0.0,1.0,79,0.00,,,0.00,WUHU216DAVISVP2,2013-09-07 05:31:00,
2013-09-07 01:36:00,63.3,57.1,30.08,SE,146,0.0,1.0,80,0.00,,,0.00,WUHU216DAVISVP2,2013-09-07 05:36:00,
2013-09-07 01:41:00,63.2,57.0,30.07,SE,146,0.0,1.0,80,0.00,,,0.00,WUHU216DAVISVP2,2013-09-07 05:41:00,
2013-09-07 01:46:00,63.1,56.9,30.07,SE,132,0.0,0.0,80,0.00,,,0.00,WUHU216DAVISVP2,2013-09-07 05:46:00,
2013-09-07 01:51:00,63.1,56.9,30.07,SE,146,0.0,0.0,80,0.00,,,0.00,WUHU216DAVISVP2,2013-09-07 05:51:00,
2013-09-07 01:56:00,63.1,56.9,30.07,SE,141,0.0,0.0,80,0.00,,,0.00,WUHU216DAVISVP2,2013-09-07 05:56:00,
2013-09-07 02:01:00,63.0,56.8,30.07,SSE,148,0.0,1.0,80,0.00,,,0.00,WUHU216DAVISVP2,2013-09-07 06:01:00,
2013-09-07 02:06:00,63.0,57.1,30.07,South,184,0.0,1.0,81,0.00,,,0.00,WUHU216DAVISVP2,2013-09-07 06:06:00,
2013-09-07 02:11:00,63.0,56.8,30.07,SSE,160,0.0,1.0,80,0.00,,,0.00,WUHU216DAVISVP2,2013-09-07 06:11:00,
2013-09-07 02:16:00,63.0,57.1,30.07,SSE,161,0.0,1.0,81,0.00,,,0.00,WUHU216DAVISVP2,2013-09-07 06:16:00,
2013-09-07 02:21:00,62.9,57.0,30.07,SSE,161,0.0,1.0,81,0.00,,,0.00,WUHU216DAVISVP2,2013-09-07 06:21:00,
2013-09-07 02:26:00,62.8,56.9,30.07,SE,136,0.0,1.0,81,0.00,,,0.00,WUHU216DAVISVP2,2013-09-07 06:26:00,
2013-09-07 02:31:00,62.6,56.7,30.07,SSE,165,0.0,1.0,81,0.00,,,0.00,WUHU216DAVISVP2,2013-09-07 06:31:00,
2013-09-07 02:36:00,62.5,57.0,30.06,SSE,166,0.0,1.0,82,0.00,,,0.00,WUHU216DAVISVP2,2013-09-07 06:36:00,
2013-09-07 02:41:00,62.4,56.9,30.06,SSE,162,0.0,1.0,82,0.00,,,0.00,WUHU216DAVISVP2,2013-09-07 06:41:00,
2013-09-07 02:46:00,62.4,56.9,30.07,SSE,159,0.0,1.0,82,0.00,,,0.00,WUHU216DAVISVP2,2013-09-07 06:46:00,
2013-09-07 02:51:00,62.3,56.8,30.06,South,176,0.0,0.0,82,0.00,,,0.00,WUHU216DAVISVP2,2013-09-07 06:51:00,
2013-09-07 02:56:00,62.1,56.9,30.06,SSE,163,0.0,0.0,83,0.00,,,0.00,WUHU216DAVISVP2,2013-09-07 06:56:00,
2013-09-07 03:01:00,62.0,56.8,30.06,South,169,0.0,0.0,83,0.00,,,0.00,WUHU216DAVISVP2,2013-09-07 07:01:00,
2013-09-07 03:06:00,61.8,56.9,30.06,SSW,207,0.0,0.0,84,0.00,,,0.00,WUHU216DAVISVP2,2013-09-07 07:06:00,
2013-09-07 03:11:00,61.6,56.7,30.06,SSW,200,0.0,0.0,84,0.00,,,0.00,WUHU216DAVISVP2,2013-09-07 07:11:00,
2013-09-07 03:16:00,61.4,56.9,30.06,SW,228,0.0,0.0,85,0.00,,,0.00,WUHU216DAVISVP2,2013-09-07 07:16:00,
2013-09-07 03:21:00,61.3,56.8,30.06,SSW,207,0.0,0.0,85,0.00,,,0.00,WUHU216DAVISVP2,2013-09-07 07:21:00,
2013-09-07 03:26:00,61.2,56.7,30.06,SSW,207,0.0,0.0,85,0.00,,,0.00,WUHU216DAVISVP2,2013-09-07 07:26:00,
2013-09-07 03:31:00,61.1,56.6,30.06,SSW,212,0.0,1.0,85,0.00,,,0.00,WUHU216DAVISVP2,2013-09-07 07:31:00,
2013-09-07 03:36:00,61.1,56.9,30.06,SSW,207,0.0,1.0,86,0.00,,,0.00,WUHU216DAVISVP2,2013-09-07 07:36:00,
2013-09-07 03:41:00,61.0,56.8,30.06,SSW,194,0.0,1.0,86,0.00,,,0.00,WUHU216DAVISVP2,2013-09-07 07:41:00,
2013-09-07 03:46:00,61.0,56.8,30.06,SSW,198,0.0,1.0,86,0.00,,,0.00,WUHU216DAVISVP2,2013-09-07 07:46:00,
2013-09-07 03:51:00,61.0,56.8,30.06,SSE,162,0.0,0.0,86,0.00,,,0.00,WUHU216DAVISVP2,2013-09-07 07:51:00,
2013-09-07 03:56:00,61.0,56.8,30.06,South,184,0.0,1.0,86,0.00,,,0.00,WUHU216DAVISVP2,2013-09-07 07:56:00,
2013-09-07 04:01:00,61.1,56.9,30.06,South,191,0.0,1.0,86,0.00,,,0.00,WUHU216DAVISVP2,2013-09-07 08:01:00,
2013-09-07 04:06:00,61.2,57.0,30.06,South,190,0.0,1.0,86,0.00,,,0.00,WUHU216DAVISVP2,2013-09-07 08:06:00,
2013-09-07 04:11:00,61.2,57.0,30.06,South,180,0.0,1.0,86,0.00,,,0.00,WUHU216DAVISVP2,2013-09-07 08:11:00,
2013-09-07 04:16:00,61.3,57.1,30.06,SSE,158,0.0,1.0,86,0.00,,,0.00,WUHU216DAVISVP2,2013-09-07 08:16:00,
2013-09-07 04:21:00,61.3,57.1,30.06,SSE,161,0.0,1.0,86,0.00,,,0.00,WUHU216DAVISVP2,2013-09-07 08:21:00,
2013-09-07 04:26:00,61.3,57.1,30.06,SSE,160,0.0,1.0,86,0.00,,,0.00,WUHU216DAVISVP2,2013-09-07 08:26:00,
2013-09-07 04:31:00,61.2,57.0,30.06,South,190,0.0,1.0,86,0.00,,,0.00,WUHU216DAVISVP2,2013-09-07 08:31:00,
2013-09-07 04:36:00,61.0,56.8,30.06,SSW,197,0.0,1.0,86,0.00,,,0.00,WUHU216DAVISVP2,2013-09-07 08:36:00,
2013-09-07 04:41:00,60.9,57.0,30.06,SSW,195,0.0,1.0,87,0.00,,,0.00,WUHU216DAVISVP2,2013-09-07 08:41:00,
2013-09-07 04:46:00,60.7,56.8,30.06,SSW,196,0.0,0.0,87,0.00,,,0.00,WUHU216DAVISVP2,2013-09-07 08:46:00,
2013-09-07 04:51:00,60.5,56.6,30.06,SSE,155,0.0,0.0,87,0.00,,,0.00,WUHU216DAVISVP2,2013-09-07 08:51:00,
2013-09-07 04:56:00,60.4,56.8,30.05,SSE,165,0.0,0.0,88,0.00,,,0.00,WUHU216DAVISVP2,2013-09-07 08:56:00,
2013-09-07 05:01:00,60.4,56.8,30.05,SSE,156,0.0,0.0,88,0.00,,,0.00,WUHU216DAVISVP2,2013-09-07 09:01:00,
2013-09-07 05:06:00,60.3,57.0,30.05,South,186,0.0,0.0,89,0.00,,,0.00,WUHU216DAVISVP2,2013-09-07 09:06:00,
2013-09-07 05:11:00,60.3,57.0,30.06,SSW,212,0.0,0.0,89,0.00,,,0.00,WUHU216DAVISVP2,2013-09-07 09:11:00,
2013-09-07 05:16:00,60.4,57.1,30.05,SSE,164,0.0,0.0,89,0.00,,,0.00,WUHU216DAVISVP2,2013-09-07 09:16:00,
2013-09-07 05:21:00,60.5,57.2,30.05,South,187,0.0,0.0,89,0.00,,,0.00,WUHU216DAVISVP2,2013-09-07 09:21:00,
2013-09-07 05:26:00,60.6,57.3,30.05,South,181,0.0,0.0,89,0.00,,,0.00,WUHU216DAVISVP2,2013-09-07 09:26:00,
2013-09-07 05:31:00,60.7,57.1,30.05,SSW,196,0.0,1.0,88,0.00,,,0.00,WUHU216DAVISVP2,2013-09-07 09:31:00,
2013-09-07 05:36:00,60.7,57.1,30.05,SSE,158,0.0,1.0,88,0.00,,,0.00,WUHU216DAVISVP2,2013-09-07 09:36:00,
2013-09-07 05:41:00,60.8,57.2,30.05,South,175,0.0,1.0,88,0.00,,,0.00,WUHU216DAVISVP2,2013-09-07 09:41:00,
2013-09-07 05:46:00,60.9,57.3,30.05,SSW,194,0.0,1.0,88,0.00,,,0.00,WUHU216DAVISVP2,2013-09-07 09:46:00,
2013-09-07 05:51:00,60.9,57.3,30.05,South,169,0.0,1.0,88,0.00,,,0.00,WUHU216DAVISVP2,2013-09-07 09:51:00,
2013-09-07 05:56:00,60.9,57.3,30.05,SSW,195,0.0,1.0,88,0.00,,,0.00,WUHU216DAVISVP2,2013-09-07 09:56:00,
2013-09-07 06:01:00,60.9,57.3,30.05,SSW,197,0.0,1.0,88,0.00,,,0.00,WUHU216DAVISVP2,2013-09-07 10:01:00,
2013-09-07 06:06:00,61.0,57.4,30.05,SSW,201,0.0,1.0,88,0.00,,,0.00,WUHU216DAVISVP2,2013-09-07 10:06:00,
2013-09-07 06:11:00,60.9,57.3,30.05,SW,229,0.0,1.0,88,0.00,,,0.00,WUHU216DAVISVP2,2013-09-07 10:11:00,
2013-09-07 06:16:00,60.9,57.3,30.06,South,188,0.0,1.0,88,0.00,,,0.00,WUHU216DAVISVP2,2013-09-07 10:16:00,
2013-09-07 06:21:00,60.9,57.3,30.06,SSW,204,0.0,1.0,88,0.00,,,0.00,WUHU216DAVISVP2,2013-09-07 10:21:00,
2013-09-07 06:26:00,60.9,57.3,30.06,SSW,204,0.0,1.0,88,0.00,,,0.00,WUHU216DAVISVP2,2013-09-07 10:26:00,
2013-09-07 06:31:00,60.9,57.3,30.05,South,191,0.0,1.0,88,0.00,,,0.00,WUHU216DAVISVP2,2013-09-07 10:31:00,
2013-09-07 06:36:00,60.9,57.3,30.05,South,188,0.0,1.0,88,0.00,,,0.00,WUHU216DAVISVP2,2013-09-07 10:36:00,
2013-09-07 06:41:00,60.9,57.3,30.05,South,177,0.0,1.0,88,0.00,,,0.00,WUHU216DAVISVP2,2013-09-07 10:41:00,
2013-09-07 06:46:00,60.8,57.2,30.05,SSW,195,0.0,1.0,88,0.00,,,0.00,WUHU216DAVISVP2,2013-09-07 10:46:00,
2013-09-07 06:51:00,60.9,57.6,30.05,SSW,210,0.0,5.0,89,0.00,,,0.00,WUHU216DAVISVP2,2013-09-07 10:51:00,
2013-09-07 06:56:00,60.9,57.6,30.05,SSW,203,0.0,5.0,89,0.00,,,0.00,WUHU216DAVISVP2,2013-09-07 10:56:00,
2013-09-07 07:01:00,61.0,57.7,30.05,SW,225,0.0,5.0,89,0.00,,,0.00,WUHU216DAVISVP2,2013-09-07 11:01:00,
2013-09-07 07:06:00,61.0,57.7,30.05,SSW,201,0.0,5.0,89,0.00,,,0.00,WUHU216DAVISVP2,2013-09-07 11:06:00,
2013-09-07 07:11:00,61.0,57.7,30.05,SW,235,0.0,2.0,89,0.00,,,0.00,WUHU216DAVISVP2,2013-09-07 11:11:00,
2013-09-07 07:16:00,61.0,57.7,30.05,SSW,203,0.0,1.0,89,0.00,,,0.00,WUHU216DAVISVP2,2013-09-07 11:16:00,
2013-09-07 07:21:00,61.0,57.7,30.05,SSW,200,0.0,1.0,89,0.00,,,0.00,WUHU216DAVISVP2,2013-09-07 11:21:00,
2013-09-07 07:26:00,61.0,57.7,30.05,South,173,0.0,3.0,89,0.00,,,0.00,WUHU216DAVISVP2,2013-09-07 11:26:00,
2013-09-07 07:31:00,61.2,57.9,30.05,SSW,208,0.0,3.0,89,0.00,,,0.00,WUHU216DAVISVP2,2013-09-07 11:31:00,
2013-09-07 07:36:00,61.4,58.1,30.05,SSW,200,0.0,4.0,89,0.00,,,0.00,WUHU216DAVISVP2,2013-09-07 11:36:00,
2013-09-07 07:41:00,61.7,58.1,30.05,SSE,156,1.0,4.0,88,0.00,,,0.00,WUHU216DAVISVP2,2013-09-07 11:41:00,
2013-09-07 07:46:00,62.0,58.4,30.05,SSW,200,1.0,4.0,88,0.00,,,0.00,WUHU216DAVISVP2,2013-09-07 11:46:00,
2013-09-07 07:51:00,62.3,58.7,30.05,SW,225,0.0,5.0,88,0.00,,,0.00,WUHU216DAVISVP2,2013-09-07 11:51:00,
2013-09-07 07:56:00,62.6,58.7,30.05,SSW,210,0.0,5.0,87,0.00,,,0.00,WUHU216DAVISVP2,2013-09-07 11:56:00,
2013-09-07 08:01:00,62.8,58.9,30.05,SSW,198,0.0,5.0,87,0.00,,,0.00,WUHU216DAVISVP2,2013-09-07 12:01:00,
2013-09-07 08:06:00,63.1,59.2,30.05,SW,222,0.0,5.0,87,0.00,,,0.00,WUHU216DAVISVP2,2013-09-07 12:06:00,
2013-09-07 08:11:00,63.5,59.6,30.05,South,190,0.0,5.0,87,0.00,,,0.00,WUHU216DAVISVP2,2013-09-07 12:11:00,
2013-09-07 08:16:00,63.9,59.6,30.05,South,188,0.0,6.0,86,0.00,,,0.00,WUHU216DAVISVP2,2013-09-07 12:16:00,
2013-09-07 08:21:00,64.2,59.9,30.05,SSW,212,2.0,6.0,86,0.00,,,0.00,WUHU216DAVISVP2,2013-09-07 12:21:00,
2013-09-07 08:26:00,64.6,60.6,30.05,SSW,197,0.0,6.0,87,0.00,,,0.00,WUHU216DAVISVP2,2013-09-07 12:26:00,
2013-09-07 08:31:00,65.0,60.7,30.05,SSE,162,0.0,6.0,86,0.00,,,0.00,WUHU216DAVISVP2,2013-09-07 12:31:00,
2013-09-07 08:36:00,65.5,61.2,30.05,SSW,207,0.0,5.0,86,0.00,,,0.00,WUHU216DAVISVP2,2013-09-07 12:36:00,
2013-09-07 08:41:00,66.0,61.7,30.05,SSW,207,1.0,4.0,86,0.00,,,0.00,WUHU216DAVISVP2,2013-09-07 12:41:00,
2013-09-07 08:46:00,66.5,61.9,30.05,SW,230,0.0,4.0,85,0.00,,,0.00,WUHU216DAVISVP2,2013-09-07 12:46:00,
2013-09-07 08:51:00,66.9,61.9,30.05,SSW,192,0.0,2.0,84,0.00,,,0.00,WUHU216DAVISVP2,2013-09-07 12:51:00,
2013-09-07 08:56:00,67.3,62.3,30.05,WSW,249,1.0,2.0,84,0.00,,,0.00,WUHU216DAVISVP2,2013-09-07 12:56:00,
2013-09-07 09:01:00,67.8,62.5,30.05,South,181,0.0,2.0,83,0.00,,,0.00,WUHU216DAVISVP2,2013-09-07 13:01:00,
2013-09-07 09:06:00,68.1,62.8,30.04,SSW,210,0.0,6.0,83,0.00,,,0.00,WUHU216DAVISVP2,2013-09-07 13:06:00,
2013-09-07 09:11:00,68.5,63.2,30.04,SSW,198,0.0,7.0,83,0.00,,,0.00,WUHU216DAVISVP2,2013-09-07 13:11:00,
2013-09-07 09:16:00,68.9,63.6,30.03,SSW,204,0.0,7.0,83,0.00,,,0.00,WUHU216DAVISVP2,2013-09-07 13:16:00,
2013-09-07 09:21:00,69.4,64.1,30.03,SSW,204,1.0,7.0,83,0.00,,,0.00,WUHU216DAVISVP2,2013-09-07 13:21:00,
2013-09-07 09:26:00,70.1,64.7,30.03,SW,217,1.0,7.0,83,0.00,,,0.00,WUHU216DAVISVP2,2013-09-07 13:26:00,
2013-09-07 09:31:00,70.5,64.5,30.03,SW,231,0.0,7.0,81,0.00,,,0.00,WUHU216DAVISVP2,2013-09-07 13:31:00,
2013-09-07 09:36:00,70.4,64.7,30.02,SW,228,0.0,7.0,82,0.00,,,0.00,WUHU216DAVISVP2,2013-09-07 13:36:00,
2013-09-07 09:41:00,70.6,64.9,30.02,SSE,163,0.0,7.0,82,0.00,,,0.00,WUHU216DAVISVP2,2013-09-07 13:41:00,
2013-09-07 09:46:00,70.9,65.2,30.02,SSW,212,0.0,7.0,82,0.00,,,0.00,WUHU216DAVISVP2,2013-09-07 13:46:00,
2013-09-07 09:51:00,71.3,65.6,30.03,SW,224,0.0,5.0,82,0.00,,,0.00,WUHU216DAVISVP2,2013-09-07 13:51:00,
2013-09-07 09:56:00,71.9,65.8,30.03,SW,224,2.0,7.0,81,0.00,,,0.00,WUHU216DAVISVP2,2013-09-07 13:56:00,
2013-09-07 10:01:00,72.0,65.9,30.03,WSW,246,0.0,7.0,81,0.00,,,0.00,WUHU216DAVISVP2,2013-09-07 14:01:00,
2013-09-07 10:06:00,72.5,66.4,30.03,SSW,210,1.0,7.0,81,0.00,,,0.00,WUHU216DAVISVP2,2013-09-07 14:06:00,
2013-09-07 10:11:00,73.2,67.1,30.03,WSW,252,2.0,7.0,81,0.00,,,0.00,WUHU216DAVISVP2,2013-09-07 14:11:00,
2013-09-07 10:16:00,73.9,67.4,30.03,WSW,240,7.0,7.0,80,0.00,,,0.00,WUHU216DAVISVP2,2013-09-07 14:16:00,
2013-09-07 10:21:00,74.2,67.4,30.03,SSW,210,4.0,8.0,79,0.00,,,0.00,WUHU216DAVISVP2,2013-09-07 14:21:00,
2013-09-07 10:26:00,74.6,67.8,30.03,SW,224,0.0,8.0,79,0.00,,,0.00,WUHU216DAVISVP2,2013-09-07 14:26:00,
2013-09-07 10:31:00,75.1,67.5,30.03,SSW,200,0.0,7.0,77,0.00,,,0.00,WUHU216DAVISVP2,2013-09-07 14:31:00,
2013-09-07 10:36:00,75.3,67.4,30.03,SW,231,3.0,8.0,76,0.00,,,0.00,WUHU216DAVISVP2,2013-09-07 14:36:00,
2013-09-07 10:41:00,75.4,67.8,30.02,WSW,255,4.0,8.0,77,0.00,,,0.00,WUHU216DAVISVP2,2013-09-07 14:41:00,
2013-09-07 10:46:00,75.5,67.9,30.02,SW,228,0.0,8.0,77,0.00,,,0.00,WUHU216DAVISVP2,2013-09-07 14:46:00,
2013-09-07 10:51:00,76.0,68.4,30.02,WSW,245,4.0,8.0,77,0.00,,,0.00,WUHU216DAVISVP2,2013-09-07 14:51:00,
2013-09-07 10:56:00,76.2,68.2,30.02,WSW,246,3.0,9.0,76,0.00,,,0.00,WUHU216DAVISVP2,2013-09-07 14:56:00,
2013-09-07 11:01:00,76.4,68.1,30.03,SW,225,7.0,9.0,75,0.00,,,0.00,WUHU216DAVISVP2,2013-09-07 15:01:00,
2013-09-07 11:06:00,76.9,68.5,30.03,WSW,245,2.0,9.0,75,0.00,,,0.00,WUHU216DAVISVP2,2013-09-07 15:06:00,
2013-09-07 11:11:00,77.5,68.7,30.02,WSW,246,5.0,9.0,74,0.00,,,0.00,WUHU216DAVISVP2,2013-09-07 15:11:00,
2013-09-07 11:16:00,77.7,68.9,30.02,SW,223,5.0,9.0,74,0.00,,,0.00,WUHU216DAVISVP2,2013-09-07 15:16:00,
2013-09-07 11:21:00,77.7,68.9,30.02,SW,231,5.0,9.0,74,0.00,,,0.00,WUHU216DAVISVP2,2013-09-07 15:21:00,
2013-09-07 11:26:00,78.3,68.7,30.02,SSW,196,4.0,9.0,72,0.00,,,0.00,WUHU216DAVISVP2,2013-09-07 15:26:00,
2013-09-07 11:31:00,78.7,69.1,30.01,West,259,4.0,10.0,72,0.00,,,0.00,WUHU216DAVISVP2,2013-09-07 15:31:00,
2013-09-07 11:36:00,79.0,68.6,30.01,WSW,238,6.0,10.0,70,0.00,,,0.00,WUHU216DAVISVP2,2013-09-07 15:36:00,
2013-09-07 11:41:00,79.2,68.8,30.01,West,262,5.0,11.0,70,0.00,,,0.00,WUHU216DAVISVP2,2013-09-07 15:41:00,
2013-09-07 11:46:00,79.6,69.2,30.01,WSW,257,2.0,11.0,70,0.00,,,0.00,WUHU216DAVISVP2,2013-09-07 15:46:00,
2013-09-07 11:51:00,80.1,69.2,30.01,SW,231,3.0,10.0,69,0.00,,,0.00,WUHU216DAVISVP2,2013-09-07 15:51:00,
2013-09-07 11:56:00,80.5,69.6,30.01,West,266,4.0,10.0,69,0.00,,,0.00,WUHU216DAVISVP2,2013-09-07 15:56:00,
2013-09-07 12:01:00,80.9,69.2,30.00,SW,222,5.0,9.0,67,0.00,,,0.00,WUHU216DAVISVP2,2013-09-07 16:01:00,
2013-09-07 12:06:00,80.8,68.6,30.00,SSW,204,4.0,10.0,66,0.00,,,0.00,WUHU216DAVISVP2,2013-09-07 16:06:00,
2013-09-07 12:11:00,81.0,69.7,30.00,West,277,1.0,10.0,68,0.00,,,0.00,WUHU216DAVISVP2,2013-09-07 16:11:00,
2013-09-07 12:16:00,81.4,69.8,30.00,WSW,238,1.0,10.0,68,0.00,,,0.00,WUHU216DAVISVP2,2013-09-07 16:16:00,
2013-09-07 12:21:00,81.4,69.6,30.00,SW,222,6.0,10.0,67,0.00,,,0.00,WUHU216DAVISVP2,2013-09-07 16:21:00,
2013-09-07 12:26:00,81.5,70.2,30.00,SW,228,2.0,10.0,68,0.00,,,0.00,WUHU216DAVISVP2,2013-09-07 16:26:00,
2013-09-07 12:31:00,81.8,69.3,30.00,WSW,243,8.0,11.0,66,0.00,,,0.00,WUHU216DAVISVP2,2013-09-07 16:31:00,
2013-09-07 12:36:00,82.3,69.8,30.00,WSW,250,6.0,11.0,66,0.00,,,0.00,WUHU216DAVISVP2,2013-09-07 16:36:00,
2013-09-07 12:41:00,82.4,69.4,29.99,WSW,253,4.0,11.0,65,0.00,,,0.00,WUHU216DAVISVP2,2013-09-07 16:41:00,
2013-09-07 12:46:00,82.7,69.3,29.99,SSW,207,10.0,11.0,64,0.00,,,0.00,WUHU216DAVISVP2,2013-09-07 16:46:00,
2013-09-07 12:51:00,82.0,68.6,29.99,SW,219,7.0,11.0,64,0.00,,,0.00,WUHU216DAVISVP2,2013-09-07 16:51:00,
2013-09-07 12:56:00,81.6,67.3,29.99,SW,232,5.0,11.0,62,0.00,,,0.00,WUHU216DAVISVP2,2013-09-07 16:56:00,
2013-09-07 13:01:00,81.9,70.1,29.99,SSW,207,2.0,11.0,67,0.00,,,0.00,WUHU216DAVISVP2,2013-09-07 17:01:00,
2013-09-07 13:06:00,82.0,68.4,29.99,SSW,201,6.0,10.0,63,0.00,,,0.00,WUHU216DAVISVP2,2013-09-07 17:06:00,
2013-09-07 13:11:00,81.9,68.3,29.99,WSW,257,3.0,10.0,63,0.00,,,0.00,WUHU216DAVISVP2,2013-09-07 17:11:00,
2013-09-07 13:16:00,82.3,69.6,29.99,WSW,239,6.0,10.0,65,0.00,,,0.00,WUHU216DAVISVP2,2013-09-07 17:16:00,
2013-09-07 13:21:00,82.5,68.4,29.99,WSW,238,5.0,10.0,62,0.00,,,0.00,WUHU216DAVISVP2,2013-09-07 17:21:00,
2013-09-07 13:26:00,82.9,69.3,29.98,West,264,7.0,12.0,63,0.00,,,0.00,WUHU216DAVISVP2,2013-09-07 17:26:00,
2013-09-07 13:31:00,83.0,69.8,29.98,WSW,240,4.0,12.0,64,0.00,,,0.00,WUHU216DAVISVP2,2013-09-07 17:31:00,
2013-09-07 13:36:00,83.4,69.3,29.98,South,184,6.0,13.0,62,0.00,,,0.00,WUHU216DAVISVP2,2013-09-07 17:36:00,
2013-09-07 13:41:00,83.5,68.9,29.98,SW,229,6.0,13.0,61,0.00,,,0.00,WUHU216DAVISVP2,2013-09-07 17:41:00,
2013-09-07 13:46:00,83.7,68.6,29.97,South,190,3.0,12.0,60,0.00,,,0.00,WUHU216DAVISVP2,2013-09-07 17:46:00,
2013-09-07 13:51:00,84.1,69.0,29.97,SSW,198,3.0,12.0,60,0.00,,,0.00,WUHU216DAVISVP2,2013-09-07 17:51:00,
2013-09-07 13:56:00,84.2,68.6,29.97,West,280,4.0,11.0,59,0.00,,,0.00,WUHU216DAVISVP2,2013-09-07 17:56:00,
2013-09-07 14:01:00,83.7,67.6,29.97,West,259,4.0,11.0,58,0.00,,,0.00,WUHU216DAVISVP2,2013-09-07 18:01:00,
2013-09-07 14:06:00,83.6,68.0,29.97,SW,226,4.0,11.0,59,0.00,,,0.00,WUHU216DAVISVP2,2013-09-07 18:06:00,
2013-09-07 14:11:00,83.4,67.3,29.97,SSW,212,6.0,10.0,58,0.00,,,0.00,WUHU216DAVISVP2,2013-09-07 18:11:00,
2013-09-07 14:16:00,83.1,67.0,29.96,WSW,238,3.0,9.0,58,0.00,,,0.00,WUHU216DAVISVP2,2013-09-07 18:16:00,
2013-09-07 14:21:00,83.0,67.4,29.96,SSW,207,2.0,9.0,59,0.00,,,0.00,WUHU216DAVISVP2,2013-09-07 18:21:00,
2013-09-07 14:26:00,83.1,67.5,29.95,SW,219,1.0,9.0,59,0.00,,,0.00,WUHU216DAVISVP2,2013-09-07 18:26:00,
2013-09-07 14:31:00,83.1,67.0,29.96,WSW,240,3.0,9.0,58,0.00,,,0.00,WUHU216DAVISVP2,2013-09-07 18:31:00,
2013-09-07 14:36:00,83.0,67.4,29.95,WNW,291,0.0,9.0,59,0.00,,,0.00,WUHU216DAVISVP2,2013-09-07 18:36:00,
2013-09-07 14:41:00,83.0,66.9,29.95,WSW,256,5.0,8.0,58,0.00,,,0.00,WUHU216DAVISVP2,2013-09-07 18:41:00,
2013-09-07 14:46:00,83.1,67.5,29.95,WSW,249,3.0,9.0,59,0.00,,,0.00,WUHU216DAVISVP2,2013-09-07 18:46:00,
2013-09-07 14:51:00,83.7,67.6,29.95,West,259,5.0,9.0,58,0.00,,,0.00,WUHU216DAVISVP2,2013-09-07 18:51:00,
2013-09-07 14:56:00,84.3,67.1,29.95,SW,233,6.0,9.0,56,0.00,,,0.00,WUHU216DAVISVP2,2013-09-07 18:56:00,
2013-09-07 15:01:00,84.8,67.1,29.95,WSW,255,1.0,9.0,55,0.00,,,0.00,WUHU216DAVISVP2,2013-09-07 19:01:00,
2013-09-07 15:06:00,84.5,66.8,29.95,SSW,210,2.0,8.0,55,0.00,,,0.00,WUHU216DAVISVP2,2013-09-07 19:06:00,
2013-09-07 15:11:00,84.1,66.9,29.95,SW,228,3.0,8.0,56,0.00,,,0.00,WUHU216DAVISVP2,2013-09-07 19:11:00,
2013-09-07 15:16:00,84.0,67.9,29.95,SSW,198,1.0,8.0,58,0.00,,,0.00,WUHU216DAVISVP2,2013-09-07 19:16:00,
2013-09-07 15:21:00,84.8,67.6,29.94,SW,231,5.0,10.0,56,0.00,,,0.00,WUHU216DAVISVP2,2013-09-07 19:21:00,
2013-09-07 15:26:00,85.1,67.9,29.94,SSW,207,2.0,12.0,56,0.00,,,0.00,WUHU216DAVISVP2,2013-09-07 19:26:00,
2013-09-07 15:31:00,85.4,68.2,29.94,SSW,211,1.0,12.0,56,0.00,,,0.00,WUHU216DAVISVP2,2013-09-07 19:31:00,
2013-09-07 15:36:00,85.4,67.6,29.94,South,188,4.0,11.0,55,0.00,,,0.00,WUHU216DAVISVP2,2013-09-07 19:36:00,
2013-09-07 15:41:00,85.2,67.4,29.94,SSW,203,3.0,11.0,55,0.00,,,0.00,WUHU216DAVISVP2,2013-09-07 19:41:00,
2013-09-07 15:46:00,85.5,67.2,29.94,SSW,204,6.0,10.0,54,0.00,,,0.00,WUHU216DAVISVP2,2013-09-07 19:46:00,
2013-09-07 15:51:00,85.6,67.3,29.94,WSW,255,2.0,9.0,54,0.00,,,0.00,WUHU216DAVISVP2,2013-09-07 19:51:00,
2013-09-07 15:56:00,85.7,66.8,29.93,SSW,210,3.0,10.0,53,0.00,,,0.00,WUHU216DAVISVP2,2013-09-07 19:56:00,
2013-09-07 16:01:00,86.0,67.4,29.93,SW,217,4.0,10.0,54,0.00,,,0.00,WUHU216DAVISVP2,2013-09-07 20:01:00,
2013-09-07 16:06:00,86.4,66.1,29.93,South,169,1.0,10.0,51,0.00,,,0.00,WUHU216DAVISVP2,2013-09-07 20:06:00,
2013-09-07 16:11:00,86.4,66.7,29.93,WSW,240,5.0,10.0,52,0.00,,,0.00,WUHU216DAVISVP2,2013-09-07 20:11:00,
2013-09-07 16:16:00,86.3,66.2,29.93,WSW,250,4.0,10.0,51,0.00,,,0.00,WUHU216DAVISVP2,2013-09-07 20:16:00,
2013-09-07 16:21:00,86.0,65.2,29.93,WSW,240,0.0,12.0,50,0.00,,,0.00,WUHU216DAVISVP2,2013-09-07 20:21:00,
2013-09-07 16:26:00,85.9,66.2,29.93,WSW,239,2.0,12.0,52,0.00,,,0.00,WUHU216DAVISVP2,2013-09-07 20:26:00,
2013-09-07 16:31:00,85.7,66.6,29.93,WSW,250,1.0,11.0,53,0.00,,,0.00,WUHU216DAVISVP2,2013-09-07 20:31:00,
2013-09-07 16:36:00,85.4,65.2,29.93,SSW,201,3.0,11.0,51,0.00,,,0.00,WUHU216DAVISVP2,2013-09-07 20:36:00,
2013-09-07 16:41:00,85.0,66.0,29.94,South,191,4.0,9.0,53,0.00,,,0.00,WUHU216DAVISVP2,2013-09-07 20:41:00,
2013-09-07 16:46:00,84.9,65.9,29.94,SW,226,2.0,9.0,53,0.00,,,0.00,WUHU216DAVISVP2,2013-09-07 20:46:00,
2013-09-07 16:51:00,84.7,64.6,29.95,NW,318,2.0,8.0,51,0.00,,,0.00,WUHU216DAVISVP2,2013-09-07 20:51:00,
2013-09-07 16:56:00,84.5,65.5,29.95,West,262,2.0,8.0,53,0.00,,,0.00,WUHU216DAVISVP2,2013-09-07 20:56:00,
2013-09-07 17:01:00,84.3,65.8,29.94,West,269,1.0,7.0,54,0.00,,,0.00,WUHU216DAVISVP2,2013-09-07 21:01:00,
2013-09-07 17:06:00,84.2,65.8,29.94,WSW,253,0.0,7.0,54,0.00,,,0.00,WUHU216DAVISVP2,2013-09-07 21:06:00,
2013-09-07 17:11:00,84.1,65.9,29.94,WSW,253,0.0,6.0,54,0.00,,,0.00,WUHU216DAVISVP2,2013-09-07 21:11:00,
2013-09-07 17:16:00,84.0,67.4,29.94,SW,222,1.0,4.0,57,0.00,,,0.00,WUHU216DAVISVP2,2013-09-07 21:16:00,
2013-09-07 17:21:00,83.8,66.7,29.94,WSW,250,0.0,3.0,56,0.00,,,0.00,WUHU216DAVISVP2,2013-09-07 21:21:00,
2013-09-07 17:26:00,83.6,67.0,29.94,WSW,240,0.0,3.0,57,0.00,,,0.00,WUHU216DAVISVP2,2013-09-07 21:26:00,
2013-09-07 17:31:00,83.4,66.8,29.94,West,263,0.0,3.0,57,0.00,,,0.00,WUHU216DAVISVP2,2013-09-07 21:31:00,
2013-09-07 17:36:00,83.3,67.2,29.94,WSW,255,0.0,3.0,58,0.00,,,0.00,WUHU216DAVISVP2,2013-09-07 21:36:00,
2013-09-07 17:41:00,83.1,67.5,29.94,West,260,0.0,3.0,59,0.00,,,0.00,WUHU216DAVISVP2,2013-09-07 21:41:00,
2013-09-07 17:46:00,82.9,67.8,29.93,West,260,0.0,3.0,60,0.00,,,0.00,WUHU216DAVISVP2,2013-09-07 21:46:00,
2013-09-07 17:51:00,82.7,68.1,29.93,WSW,255,0.0,2.0,61,0.00,,,0.00,WUHU216DAVISVP2,2013-09-07 21:51:00,
2013-09-07 17:56:00,82.5,69.4,29.93,WSW,255,0.0,1.0,64,0.00,,,0.00,WUHU216DAVISVP2,2013-09-07 21:56:00,
2013-09-07 18:01:00,82.1,69.4,29.93,WSW,255,0.0,1.0,65,0.00,,,0.00,WUHU216DAVISVP2,2013-09-07 22:01:00,
2013-09-07 18:06:00,81.6,69.4,29.93,WSW,255,0.0,1.0,66,0.00,,,0.00,WUHU216DAVISVP2,2013-09-07 22:06:00,
2013-09-07 18:11:00,81.2,68.1,29.93,WSW,255,0.0,1.0,64,0.00,,,0.00,WUHU216DAVISVP2,2013-09-07 22:11:00,
2013-09-07 18:16:00,81.0,69.3,29.93,WSW,255,0.0,0.0,67,0.00,,,0.00,WUHU216DAVISVP2,2013-09-07 22:16:00,
2013-09-07 18:21:00,80.8,69.5,29.93,WSW,255,0.0,0.0,68,0.00,,,0.00,WUHU216DAVISVP2,2013-09-07 22:21:00,
2013-09-07 18:26:00,80.5,71.2,29.93,WSW,255,0.0,0.0,73,0.00,,,0.00,WUHU216DAVISVP2,2013-09-07 22:26:00,
2013-09-07 18:31:00,80.0,70.4,29.93,SSW,194,0.0,1.0,72,0.00,,,0.00,WUHU216DAVISVP2,2013-09-07 22:31:00,
2013-09-07 18:36:00,79.6,70.8,29.93,SSW,195,0.0,1.0,74,0.00,,,0.00,WUHU216DAVISVP2,2013-09-07 22:36:00,
2013-09-07 18:41:00,79.0,70.6,29.93,SSW,194,0.0,1.0,75,0.00,,,0.00,WUHU216DAVISVP2,2013-09-07 22:41:00,
2013-09-07 18:46:00,78.5,70.5,29.93,SSW,195,0.0,1.0,76,0.00,,,0.00,WUHU216DAVISVP2,2013-09-07 22:46:00,
2013-09-07 18:51:00,78.0,70.7,29.92,SSW,194,0.0,1.0,78,0.00,,,0.00,WUHU216DAVISVP2,2013-09-07 22:51:00,
2013-09-07 18:56:00,77.5,69.5,29.92,SSW,207,0.0,1.0,76,0.00,,,0.00,WUHU216DAVISVP2,2013-09-07 22:56:00,
2013-09-07 19:01:00,77.0,69.7,29.92,SSW,204,0.0,1.0,78,0.00,,,0.00,WUHU216DAVISVP2,2013-09-07 23:01:00,
2013-09-07 19:06:00,76.5,68.9,29.91,South,190,0.0,1.0,77,0.00,,,0.00,WUHU216DAVISVP2,2013-09-07 23:06:00,
2013-09-07 19:11:00,76.3,68.3,29.92,SSW,205,0.0,1.0,76,0.00,,,0.00,WUHU216DAVISVP2,2013-09-07 23:11:00,
2013-09-07 19:16:00,76.2,68.2,29.92,SSW,205,0.0,1.0,76,0.00,,,0.00,WUHU216DAVISVP2,2013-09-07 23:16:00,
2013-09-07 19:21:00,76.1,67.8,29.92,SSW,205,0.0,1.0,75,0.00,,,0.00,WUHU216DAVISVP2,2013-09-07 23:21:00,
2013-09-07 19:26:00,76.1,68.1,29.92,SSW,204,0.0,0.0,76,0.00,,,0.00,WUHU216DAVISVP2,2013-09-07 23:26:00,
2013-09-07 19:31:00,75.9,67.9,29.92,SSW,205,0.0,0.0,76,0.00,,,0.00,WUHU216DAVISVP2,2013-09-07 23:31:00,
2013-09-07 19:36:00,75.8,67.8,29.92,SSW,205,0.0,0.0,76,0.00,,,0.00,WUHU216DAVISVP2,2013-09-07 23:36:00,
2013-09-07 19:41:00,75.8,68.6,29.92,SSW,204,0.0,0.0,78,0.00,,,0.00,WUHU216DAVISVP2,2013-09-07 23:41:00,
2013-09-07 19:46:00,75.7,68.8,29.92,SSW,204,0.0,0.0,79,0.00,,,0.00,WUHU216DAVISVP2,2013-09-07 23:46:00,
2013-09-07 19:51:00,75.4,69.2,29.92,South,191,0.0,0.0,81,0.00,,,0.00,WUHU216DAVISVP2,2013-09-07 23:51:00,
2013-09-07 19:56:00,74.9,69.1,29.92,South,190,0.0,0.0,82,0.00,,,0.00,WUHU216DAVISVP2,2013-09-07 23:56:00,
2013-09-07 20:01:00,74.2,68.4,29.92,West,263,0.0,0.0,82,0.00,,,0.00,WUHU216DAVISVP2,2013-09-08 00:01:00,
2013-09-07 20:06:00,73.9,68.1,29.92,West,263,0.0,0.0,82,0.00,,,0.00,WUHU216DAVISVP2,2013-09-08 00:06:00,
2013-09-07 20:11:00,73.8,68.0,29.92,West,263,0.0,0.0,82,0.00,,,0.00,WUHU216DAVISVP2,2013-09-08 00:11:00,
2013-09-07 20:16:00,73.8,68.4,29.92,West,263,0.0,0.0,83,0.00,,,0.00,WUHU216DAVISVP2,2013-09-08 00:16:00,
2013-09-07 20:21:00,73.8,68.4,29.92,West,263,0.0,0.0,83,0.00,,,0.00,WUHU216DAVISVP2,2013-09-08 00:21:00,
2013-09-07 20:26:00,73.8,68.4,29.92,West,263,0.0,0.0,83,0.00,,,0.00,WUHU216DAVISVP2,2013-09-08 00:26:00,
2013-09-07 20:31:00,73.7,67.9,29.92,West,263,0.0,0.0,82,0.00,,,0.00,WUHU216DAVISVP2,2013-09-08 00:31:00,
2013-09-07 20:36:00,73.8,68.7,29.93,West,263,0.0,0.0,84,0.00,,,0.00,WUHU216DAVISVP2,2013-09-08 00:36:00,
2013-09-07 20:41:00,73.7,68.3,29.93,West,264,0.0,0.0,83,0.00,,,0.00,WUHU216DAVISVP2,2013-09-08 00:41:00,
2013-09-07 20:46:00,73.9,67.8,29.93,West,264,0.0,0.0,81,0.00,,,0.00,WUHU216DAVISVP2,2013-09-08 00:46:00,
2013-09-07 20:51:00,74.2,69.1,29.93,West,264,0.0,0.0,84,0.00,,,0.00,WUHU216DAVISVP2,2013-09-08 00:51:00,
2013-09-07 20:56:00,73.9,68.8,29.93,West,264,0.0,0.0,84,0.00,,,0.00,WUHU216DAVISVP2,2013-09-08 00:56:00,
2013-09-07 21:01:00,73.6,68.8,29.93,West,264,0.0,0.0,85,0.00,,,0.00,WUHU216DAVISVP2,2013-09-08 01:01:00,
2013-09-07 21:06:00,73.2,68.8,29.93,West,264,0.0,0.0,86,0.00,,,0.00,WUHU216DAVISVP2,2013-09-08 01:06:00,
2013-09-07 21:11:00,72.8,68.7,29.94,NNE,25,0.0,1.0,87,0.00,,,0.00,WUHU216DAVISVP2,2013-09-08 01:11:00,
2013-09-07 21:16:00,72.8,68.4,29.94,NNE,25,0.0,1.0,86,0.00,,,0.00,WUHU216DAVISVP2,2013-09-08 01:16:00,
2013-09-07 21:21:00,72.9,68.5,29.94,NNE,25,0.0,1.0,86,0.00,,,0.00,WUHU216DAVISVP2,2013-09-08 01:21:00,
2013-09-07 21:26:00,72.7,68.0,29.94,NNE,25,0.0,1.0,85,0.00,,,0.00,WUHU216DAVISVP2,2013-09-08 01:26:00,
2013-09-07 21:31:00,72.8,68.1,29.94,NNE,25,0.0,0.0,85,0.00,,,0.00,WUHU216DAVISVP2,2013-09-08 01:31:00,
2013-09-07 21:36:00,72.6,67.9,29.94,NNE,25,0.0,0.0,85,0.00,,,0.00,WUHU216DAVISVP2,2013-09-08 01:36:00,
2013-09-07 21:41:00,72.4,68.0,29.93,NNE,25,0.0,0.0,86,0.00,,,0.00,WUHU216DAVISVP2,2013-09-08 01:41:00,
2013-09-07 21:46:00,72.2,67.8,29.93,NNE,25,0.0,0.0,86,0.00,,,0.00,WUHU216DAVISVP2,2013-09-08 01:46:00,
2013-09-07 21:51:00,72.0,67.6,29.94,NNE,25,0.0,0.0,86,0.00,,,0.00,WUHU216DAVISVP2,2013-09-08 01:51:00,
2013-09-07 21:56:00,71.8,67.7,29.94,NNE,24,0.0,0.0,87,0.00,,,0.00,WUHU216DAVISVP2,2013-09-08 01:56:00,
2013-09-07 22:01:00,71.7,68.0,29.94,NNE,25,0.0,0.0,88,0.00,,,0.00,WUHU216DAVISVP2,2013-09-08 02:01:00,
2013-09-07 22:06:00,71.6,67.9,29.94,NNE,25,0.0,0.0,88,0.00,,,0.00,WUHU216DAVISVP2,2013-09-08 02:06:00,
2013-09-07 22:11:00,71.5,67.8,29.94,NNE,25,0.0,0.0,88,0.00,,,0.00,WUHU216DAVISVP2,2013-09-08 02:11:00,
2013-09-07 22:16:00,71.4,67.7,29.95,NNE,25,0.0,0.0,88,0.00,,,0.00,WUHU216DAVISVP2,2013-09-08 02:16:00,
2013-09-07 22:21:00,71.3,67.6,29.95,NNE,25,0.0,0.0,88,0.00,,,0.00,WUHU216DAVISVP2,2013-09-08 02:21:00,
2013-09-07 22:26:00,71.4,67.7,29.95,NNE,25,0.0,0.0,88,0.00,,,0.00,WUHU216DAVISVP2,2013-09-08 02:26:00,
2013-09-07 22:31:00,71.4,67.7,29.95,NNE,25,0.0,0.0,88,0.00,,,0.00,WUHU216DAVISVP2,2013-09-08 02:31:00,
2013-09-07 22:36:00,71.5,67.8,29.95,NNE,25,0.0,0.0,88,0.00,,,0.00,WUHU216DAVISVP2,2013-09-08 02:36:00,
2013-09-07 22:41:00,71.6,67.9,29.95,NNE,25,0.0,0.0,88,0.00,,,0.00,WUHU216DAVISVP2,2013-09-08 02:41:00,
2013-09-07 22:46:00,71.5,67.8,29.95,NNE,25,0.0,0.0,88,0.00,,,0.00,WUHU216DAVISVP2,2013-09-08 02:46:00,
2013-09-07 22:51:00,71.4,67.7,29.95,NNE,25,0.0,0.0,88,0.00,,,0.00,WUHU216DAVISVP2,2013-09-08 02:51:00,
2013-09-07 22:56:00,71.2,67.1,29.94,SW,217,0.0,0.0,87,0.00,,,0.00,WUHU216DAVISVP2,2013-09-08 02:56:00,
2013-09-07 23:01:00,71.1,67.0,29.95,South,190,0.0,0.0,87,0.00,,,0.00,WUHU216DAVISVP2,2013-09-08 03:01:00,
2013-09-07 23:06:00,70.8,66.7,29.95,SSW,212,0.0,0.0,87,0.00,,,0.00,WUHU216DAVISVP2,2013-09-08 03:06:00,
2013-09-07 23:11:00,70.5,66.8,29.95,SSW,212,0.0,0.0,88,0.00,,,0.00,WUHU216DAVISVP2,2013-09-08 03:11:00,
2013-09-07 23:16:00,70.3,66.6,29.95,SSW,212,0.0,0.0,88,0.00,,,0.00,WUHU216DAVISVP2,2013-09-08 03:16:00,
2013-09-07 23:21:00,70.5,66.8,29.95,SSW,212,0.0,0.0,88,0.00,,,0.00,WUHU216DAVISVP2,2013-09-08 03:21:00,
2013-09-07 23:26:00,70.6,66.9,29.95,SSW,212,0.0,0.0,88,0.00,,,0.00,WUHU216DAVISVP2,2013-09-08 03:26:00,
2013-09-07 23:31:00,70.6,66.9,29.94,SSW,212,0.0,0.0,88,0.00,,,0.00,WUHU216DAVISVP2,2013-09-08 03:31:00,
2013-09-07 23:36:00,70.5,67.1,29.94,SSW,212,0.0,0.0,89,0.00,,,0.00,WUHU216DAVISVP2,2013-09-08 03:36:00,
2013-09-07 23:41:00,70.4,67.0,29.94,SSW,212,0.0,0.0,89,0.00,,,0.00,WUHU216DAVISVP2,2013-09-08 03:41:00,
2013-09-07 23:46:00,70.3,66.9,29.94,SSW,212,0.0,0.0,89,0.00,,,0.00,WUHU216DAVISVP2,2013-09-08 03:46:00,
2013-09-07 23:51:00,70.5,66.8,29.94,SSW,212,0.0,0.0,88,0.00,,,0.00,WUHU216DAVISVP2,2013-09-08 03:51:00,
2013-09-07 23:56:00,70.7,66.6,29.94,SSW,212,0.0,0.0,87,0.00,,,0.00,WUHU216DAVISVP2,2013-09-08 03:56:00,